Flag for U.S.A. Weather past 2 weeks in San Francisco, California, U.S.A.

Now
77 °F

Passing clouds.


Feels Like: 79 °F
Forecast: 60 / 75 °F
Wind: 25 mph from West

Location: San Francisco International Airport

Current Time: Jul 24, 2014 at 4:31:27 PM

Latest Report: Jul 24, 2014 at 3:56 PM


Visibility: 10 mi

Pressure: 29.88 "Hg

Humidity: 48%

Dew point: 56 °F

Location of San FranciscoLocation

Historic Weather in San Francisco — Graph

°F

San Francisco temperature yesterday

Maximum temperature yesterday: 76 °F (at 12:56 PM)
Minimum temperature yesterday: 65 °F (at 9:56 PM)
Average temperature yesterday: 69 °F

Past Weeks' High & Low Weather Summary

 TemperatureHumidityPressure
High82 °F (Jul 24, 12:56 PM)97% (Jul 13, 6:56 AM)30.14 "Hg (Jul 13, 6:56 AM)
Low53 °F (Jul 13, 4:56 AM)46% (Jul 24, 1:56 PM)29.86 "Hg (Jul 14, 5:56 AM)
Average66 °F74%29.99 "Hg
* Reported Jul 9 2:56 PM — Jul 24 2:56 PM, San Francisco, Weather by CustomWeather, © 2014

Note: Actual official high and low records may vary slightly from our data, if they occured in-between our weather recording intervals... More about our weather records

Advertising

San Francisco weather history for previous 24 hours

 ConditionsComfort  
Time TempWeatherWind HumidityBarometerVisibility
2:56 PM
Jul 24
81 °FPassing clouds.22 mph47%29.90 "Hg10 mi
1:56 PM82 °FSunny.17 mph46%29.93 "Hg10 mi
12:56 PM82 °FSunny.13 mph48%29.95 "Hg10 mi
11:56 AM75 °FSunny.5 mph66%29.97 "Hg10 mi
10:56 AM70 °FPassing clouds.No wind73%29.99 "Hg10 mi
9:56 AM69 °FPassing clouds.7 mph76%30.01 "Hg10 mi
8:56 AM66 °FPassing clouds.9 mph78%30.02 "Hg10 mi
7:56 AM63 °FPassing clouds.7 mph87%30.03 "Hg10 mi
6:56 AM62 °FPassing clouds.10 mph86%30.02 "Hg10 mi
5:56 AM61 °FPassing clouds.7 mph90%30.02 "Hg10 mi
4:56 AM61 °FPassing clouds.14 mph90%30.01 "Hg10 mi
3:56 AM61 °FPartly cloudy.14 mph90%30.02 "Hg10 mi
2:56 AM62 °FPartly cloudy.17 mph90%30.03 "Hg10 mi
1:56 AM63 °FPartly cloudy.20 mph87%30.04 "Hg10 mi
12:56 AM64 °FPassing clouds.21 mph84%30.05 "Hg10 mi
11:56 PM
Jul 23
65 °FPassing clouds.17 mph81%30.04 "Hg10 mi
10:56 PM65 °FPassing clouds.14 mph81%30.05 "Hg10 mi
9:56 PM65 °FPassing clouds.16 mph81%30.06 "Hg10 mi
8:56 PM66 °FPassing clouds.15 mph78%30.05 "Hg10 mi
7:56 PM67 °FPassing clouds.18 mph76%30.06 "Hg10 mi
6:56 PM67 °FPartly sunny.20 mph79%30.06 "Hg10 mi
5:56 PM68 °FScattered clouds.23 mph73%30.08 "Hg10 mi
4:56 PM71 °FPassing clouds.22 mph66%30.09 "Hg10 mi
Weather by CustomWeather, © 2014

See weather overviewHow to use our weather pages